Location: Ladrillo (historical)
(32.8195°N, 117.2231°W)
Time: 08:45:50
(UTC+00:00)

FO-99 - Pass Details

Date: 12 April 2021
Orbit: 472 x 506 km, 97.2° (Epoch: 09 May)

Event Time Altitude Azimuth Distance (km) Brightness Sun altitude
Exits shadow 03:33:17 34° 98° (E) 848 ? -16.3°
Maximum altitude 03:33:52 36° 75° (ENE) 807 ? -16.4°
Drops below altitude 10° 03:37:18 10° 7° (N) 1,722 ? -17.1°
Sets 03:39:30 0° 359° (N) 2,612 ? -17.5°
